Regional Weather Roundup
Issued by NWS

Home | Current Version | Previous Version | Graphics & Text | Print | Product List | Glossary Off
Versions: 1 2 3 4 5 6 7 8 9 10 11 12 13 14 15 16 17 18 19 20 21 22 23 24 25 26 27 28 29 30 31 32 33 34 35 36 37 38 39 40 41 42 43 44 45 46 47 48 49

000
ASUS43 KDMX 212107
RWRIA

WEATHER ROUNDUP FOR IOWA
NATIONAL WEATHER SERVICE DES MOINES IA
400 PM CDT SUN SEP 21 2014

NOTE: "FAIR" INDICATES FEW OR NO CLOUDS BELOW 12,000 FEET WITH NO
SIGNIFICANT WEATHER AND/OR OBSTRUCTIONS TO VISIBILITY.

* - THESE STATIONS ARE NOT NWS STATIONS...THUS NOT UNDER NWS
QUALITY CONTROL.  THEY ALSO DO NOT REPORT WEATHER SUCH
AS PRECIPITATION OR FOG.

IAZ001>003-012>014-020>022-031>034-043>046-212200-
   NORTHWEST IOWA

CITY           SKY/WX    TMP DP  RH WIND       PRES   REMARKS
CARROLL *      CLOUDY    68  46  45 N15G22    30.18S
CHEROKEE *     PTSUNNY   68  48  49 N9G17     30.20S
DENISON *      SUNNY     68  48  49 N13G20    30.18S
LE MARS *      MOSUNNY   70  46  43 NW10      30.22R
ORANGE CITY *  MOSUNNY   68  45  42 N10       30.22R
SHELDON *      MOSUNNY   70  46  43 N12       30.20S
SIOUX CITY     PTSUNNY   73  49  42 N14       30.21S
SPENCER        PTSUNNY   67  47  48 N15       30.20S
STORM LAKE *   SUNNY     68  50  52 NW20      30.19S
$$

IAZ055>058-069>071-079>083-090>094-212200-
   SOUTHWEST IOWA

CITY           SKY/WX    TMP DP  RH WIND       PRES   REMARKS
ATLANTIC *     MOSUNNY   70  48  46 N15G22    30.18S
AUDUBON *      MOSUNNY   70  45  40 N12G17    30.19S
CLARINDA *     MOSUNNY   73  48  40 N8G18     30.19S
COUNCIL BLFS * MOSUNNY   72  50  46 NW9G21    30.19S
CRESTON *      MOSUNNY   68  48  49 N16G22    30.17S
HARLAN  *      MOSUNNY   70  48  46 N16G24    30.23R
LAMONI         SUNNY     70  49  47 N14       30.15S
RED OAK *      MOSUNNY   72  48  43 N15G22    30.18F
SHENANDOAH *   SUNNY     72  48  43 N17G24    30.19S
$$

IAZ047>049-059>061-072>074-084-212200-
   CENTRAL IOWA

CITY           SKY/WX    TMP DP  RH WIND       PRES   REMARKS
AMES           PTSUNNY   67  48  50 N15G23    30.15S
ANKENY *       CLOUDY    66  46  48 N14G22    30.15R
CHARITON *     MOSUNNY   68  48  49 NW14G22   30.14R
DES MOINES     PTSUNNY   71  47  42 NW18      30.14S
GRINNELL*      PTSUNNY   66  48  52 NW10G20   30.14S
KNOXVILLE *    CLOUDY    68  46  45 N13G21    30.12S
MARSHALLTOWN   PTSUNNY   67  49  52 N17       30.13S
PELLA *        PTSUNNY   66  50  55 N12G18    30.14S
PERRY *        PTSUNNY   68  46  45 N15G23    30.17R
$$

IAZ004>006-015-016-023>025-035-036-212200-
   NORTH CENTRAL IOWA

CITY           SKY/WX    TMP DP  RH WIND       PRES   REMARKS
ALGONA *       CLOUDY    66  48  52 N17G23    30.18S
CLARION *        N/A     64  48  55 NW15G24   30.17R
ESTHERVILLE    CLOUDY    63  49  60 N17       30.20R
FORT DODGE *   CLOUDY    64  48  55 N6G16     30.18S
MASON CITY     PTSUNNY   66  49  54 NW15G24   30.16R
FOREST CITY *  PTSUNNY   63  46  55 NW18      30.16S
IOWA FALLS *   CLOUDY    64  46  52 NW14G24   30.16R
$$

IAZ007>011-017>019-026>030-037>042-050>054-066-212200-
   NORTHEAST IOWA

CITY           SKY/WX    TMP DP  RH WIND       PRES   REMARKS
CEDAR RAPIDS   CLOUDY    63  51  65 NW14      30.10R
CHARLES CITY * PTSUNNY   64  46  52 N13G20    30.14R
CLINTON *      MOSUNNY   64  50  59 NW12G17   30.09R
DECORAH *      MOSUNNY   63  46  55 N13       30.10R
DUBUQUE        MOSUNNY   65  50  58 N16       30.07R
MONTICELLO *   PTSUNNY   68  50  52 NW12G20   30.07S
OELWEIN *      PTSUNNY   63  48  59 NW16G25   30.12R
WATERLOO       CLOUDY    64  48  56 NW18      30.11S
$$

IAZ064-065-067-068-078-212200-
   EAST CENTRAL IOWA

CITY           SKY/WX    TMP DP  RH WIND       PRES   REMARKS
DAVENPORT      CLOUDY    63  49  60 NW12      30.08R
IOWA CITY        N/A     64  52  64 NW16G22   30.11S
MT. PLEASANT * PTSUNNY   68  48  49 N16G24    30.11R
MUSCATINE *    CLOUDY    64  52  63 NW12G21   30.10R
QUAD CITIES    CLOUDY    64  51  62 NW10      30.07R
$$

IAZ062-063-075>077-085>089-095>099-212200-
   SOUTHEAST IOWA

CITY           SKY/WX    TMP DP  RH WIND       PRES   REMARKS
BURLINGTON     PTSUNNY   68  51  54 N13G22    30.09R
FAIRFIELD *    MOSUNNY   68  50  52 N14G21    30.11R
FORT MADISON * MOSUNNY   72  50  46 NW9G20    30.10R
KEOKUK *       MOSUNNY   68  52  56 NW12      30.08S
OSKALOOSA *    PTSUNNY   66  50  55 NW14      30.12S
CENTERVILLE *  SUNNY     68  48  49 NW15      30.14S
OTTUMWA        PTSUNNY   69  50  50 N22       30.12R
WASHINGTON *   CLOUDY    64  50  59 N13G25    30.11S
$$

ABBREVIATIONS USED IN REMARKS
   TC - TEMPERATURES IN CELSIUS
  WCI - WIND CHILL INDEX
   HX - HEAT INDEX
  VSB - VISIBILITY
$$




USA.gov is the U.S. government's official web portal to all federal, state and local government web resources and services.